Location: Newark
(9.4667°S, 159.8167°E)
Time: 17:18:42
(UTC+00:00)

Explorer 7 - Pass Details

Date: 19 November 2019
Orbit: 485 x 680 km, 50.3° (Epoch: 05 December)

Event Time Altitude Azimuth Distance (km) Brightness Sun altitude
Rises 08:19:27 0° 189° (S) 2,986 11.0 -13.8°
Reaches altitude 10° 08:22:54 10° 163° (SSE) 2,097 9.9 -14.6°
Maximum altitude 08:25:24 14° 132° (SE) 1,851 9.3 -15.1°
Enters shadow 08:26:43 13° 115° (ESE) 1,927 9.2 -15.4°
